Location: *
(45.1961°N, 1.9694°E)
Time: 14:38:39
(UTC+00:00)

Cosmos 1975 Rocket - Pass Details

Date: 25 August 2019
Orbit: 605 x 633 km, 82.5° (Epoch: 19 September)

Event Time Altitude Azimuth Distance (km) Brightness Sun altitude
Rises 21:20:13 0° 344° (NNW) 2,917 7.5 -24.3°
Reaches altitude 10° 21:22:32 10° 338° (NNW) 2,010 6.6 -24.6°
Maximum altitude 21:26:44 43° 268° (W) 894 4.0 -25.0°
Enters shadow 21:27:39 38° 236° (SW) 973 4.0 -25.2°
